Погода в Тищенском

Россия / Ставропольский край     45°27′50″N   41°40′41″E
темп.,
°C
ветер,
м/с
пор.,
м/с
влажн.,
%
обл.,
%
осадки,
мм/ч
давл.,
гПа
погр.,
м
23 октября, сб
сб2300:00+12зюз34650 0.0 102052
03:00+10юз22690 0.0 102018
06:00+10ююз35560 0.0 102063
09:00+16юз35430 0.0 1020236
12:00+21зюз46277 0.0 10191088
15:00+22з572498 0.0 10181411
18:00+16з334190 0.0 101935
21:00+15зюз4857100 0.0 1019162
24 октября, вс
вс2400:00+12зюз3774100 0.0 1019145
03:00+11юз3788100 0.0 1020146
06:00+11юз3690100 0.0 1020160
09:00+13зюз3479100 0.0 1020316
12:00+14з1274100 0.0 1019490
15:00+15ссв3273100 0.0 1017614
18:00+12св588689 0.1 1017384
21:00+10св5891100 1.7 1017464
25 октября, пн
пн2500:00+8с81287100 8.5 1019845
03:00+5ссз6892100 16.3 1023812
06:00+5сз4891100 1.4 1025752
09:00+8зсз576592 1.6 1027962
12:00+10сз565152 0.0 10271578
15:00+10сз4551100 0.1 10281633
18:00+8ссз3659100 0.0 1030377
21:00+8ссз3452100 0.0 1031154
26 октября, вт
вт2600:00+6ссв3556100 0.0 1031258
03:00+4св236443 0.0 103278
06:00+3всв22695 0.0 103337
09:00+5всв34570 0.0 1033369
12:00+9всв33420 0.0 10321023
15:00+10всв34360 0.0 10311162
18:00+6всв48470 0.0 1031163
21:00+5в49510 0.0 1031238
27 октября, ср
ср2700:00+4в410540 0.0 1030230
03:00+3в411550 0.0 1029263
06:00+3вюв513580 0.0 1029348
09:00+6вюв714500 0.0 1028552
12:00+12вюв810360 0.0 1026842
15:00+13вюв710300 0.0 1024923
18:00+9вюв510420 0.0 1024272
21:00+7вюв511580 0.0 1023344